User: anonymous   Login
Location: Oshawa
(43.9000°N, 78.8670°W)
Time: 11:58:25
(UTC-05:00)
Language:

CARTOSAT-1 - Orbit

View from above orbital plane
View from above orbital plane
View from above satellite
View from above satellite

Ground track
Ground track

The orbit data is extracted from the following two-line orbital elements,

1 28649U 05017A   16045.06025816 -.00000194  00000-0 -17205-4 0  9991
2 28649  97.9114 119.6318 0002275 161.4788 198.6554 14.83418997583460
Epoch (UTC): 14 February 2016 01:26:46
Eccentricity: 0.0002275
inclination: 97.9114°
perigee height: 617 km
apogee height: 620 km
right ascension of ascending node: 119.6318°
argument of perigee: 161.4788°
revolutions per day: 14.83418997
mean anomaly at epoch: 198.6554°
orbit number at epoch: 58346

The dashed part of the orbit path shows where the satellite is in the earth's shadow,  

DLR